Flag for Brazil Weather past 2 weeks in Santos, São Paulo, Brazil

Now
72 °F

Partly sunny.


Feels Like: 71 °F
Forecast: 74 / 88 °F
Wind: 10 mph from Northwest

Location: Sao Paulo Airport

Current Time: Mar 31, 2015 at 9:57:05 AM

Latest Report: Mar 31, 2015 at 9:00 AM


Visibility: N/A

Pressure: 30.09 "Hg

Humidity: 83%

Dew point: 66 °F

Location of SantosLocation

Historic Weather in Santos — Graph

°F

Santos temperature yesterday

Maximum temperature yesterday: 77 °F (at 4:00 PM)
Minimum temperature yesterday: 66 °F (at 12:00 AM)
Average temperature yesterday: 72 °F

Past Weeks' High & Low Weather Summary

 TemperatureHumidityPressure
High84 °F (Mar 16, 2:00 PM)94% (Mar 19, 5:00 PM)30.24 "Hg (Mar 19, 5:00 PM)
Low61 °F (Mar 25, 6:00 AM)27% (Mar 20, 4:00 PM)29.89 "Hg (Mar 21, 3:00 PM)
Average70 °F76%30.09 "Hg
* Reported Mar 16 9:00 AM — Mar 31 9:00 AM, Santos, Weather by CustomWeather, © 2015

Note: Actual official high and low records may vary slightly from our data, if they occured in-between our weather recording intervals... More about our weather records

Advertising

Santos weather history for previous 24 hours

 ConditionsComfort  
Time TempWeatherWind HumidityBarometerVisibility
9:00 AM
Tue, Mar 31
72 °FPartly sunny.10 mph83%30.09 "HgN/A
8:00 AM70 °FPartly sunny.6 mph88%30.07 "HgN/A
7:00 AM70 °FScattered clouds.6 mph83%30.04 "HgN/A
6:00 AM68 °FSunny.8 mph88%30.01 "Hg10 mi
5:00 AM68 °FClear.7 mph88%29.98 "Hg10 mi
4:00 AM68 °FClear.9 mph88%29.98 "Hg10 mi
3:00 AM68 °FClear.8 mph88%30.01 "Hg10 mi
2:00 AM70 °FClear.8 mph83%30.01 "Hg10 mi
1:00 AM70 °FPassing clouds.7 mph83%30.01 "HgN/A
12:00 AM72 °FPassing clouds.7 mph78%30.01 "HgN/A
11:00 PM
Mon, Mar 30
72 °FLight rain. Clear.8 mph78%30.04 "HgN/A
10:00 PM73 °FPassing clouds.9 mph74%30.04 "HgN/A
9:00 PM73 °FClear.9 mph74%30.04 "Hg10 mi
8:00 PM75 °FPassing clouds.7 mph69%30.01 "HgN/A
7:00 PM75 °FPassing clouds.7 mph69%29.98 "HgN/A
6:00 PM75 °FPassing clouds.7 mph69%29.98 "HgN/A
5:00 PM77 °FScattered clouds.10 mph65%29.95 "HgN/A
4:00 PM77 °FPartly sunny.9 mph69%29.98 "HgN/A
3:00 PM75 °FPartly sunny.9 mph74%29.98 "HgN/A
2:00 PM75 °FPartly sunny.9 mph74%29.98 "HgN/A
1:00 PM73 °FLight rain. Partly sunny.9 mph78%30.01 "Hg5 mi
12:00 PM75 °FPartly sunny.12 mph74%30.07 "Hg6 mi
11:00 AM75 °FScattered clouds.8 mph74%30.04 "Hg5 mi
10:00 AM73 °FPartly sunny.2 mph78%30.07 "Hg6 mi
9:00 AM72 °FPartly sunny.5 mph83%30.07 "Hg6 mi
Weather by CustomWeather, © 2015

See weather overviewHow to use our weather pages